Maastricht, Netherlands

11:45 PM CEST on July 25, 2017 (GMT +0200)
Maastricht-Aachen

Weather History for EHBK - December, 2013

Change the Weather History Date:

Monday, December 23, 2013

  Actual Average Record
Temperature  
Mean Temperature 46 °F -  
Max Temperature 53 °F 40 °F 55 °F (2012)
Min Temperature 41 °F 31 °F 17 °F (2001)
Degree Days  
Heating Degree Days 18    
Moisture  
Dew Point 40 °F    
Average Humidity 77    
Maximum Humidity 93    
Minimum Humidity 53    
Precipitation  
Precipitation 0.00 in 0.08 in - ()
Sea Level Pressure  
Sea Level Pressure 29.86 in    
Wind  
Wind Speed 17 mph ()    
Max Wind Speed 31 mph    
Max Gust Speed 45 mph    
Visibility 8.9 miles    
Events Rain    
Averages and records for this station are not official NWS values.
T = Trace of Precipitation, MM = Missing Value Source: Averaged Metar Reports

Daily Weather History Graph

Daily Weather History Graph

Search for Another Location

Airport or City:

Trip Planner

Search our weather history database for the weather conditions in past years. The results will help you decide how hot, cold, wet, or windy it might be!

Date:

Astronomy

Dec. 23, 2013 Rise Set
Actual Time 8:38 AM CET 4:33 PM CET
Civil Twilight 7:58 AM CET 5:13 PM CET
Nautical Twilight 7:16 AM CET 5:56 PM CET
Astronomical Twilight 6:35 AM CET 6:36 PM CET
Moon 11:05 PM CET (12/23) 11:21 AM CET (12/23)
Length of Visible Light 9h 14m
Length of Day
7h 55m
Waning Gibbous, 70% of the Moon is Illuminated
Dec 23
Waning Gibbous
Dec 25
Last Quarter
Jan 1
New
Jan 8
First Quarter
Jan 16
Full

Hourly Weather History & Observations

Time (CET) Temp. Windchill Dew Point Humidity Pressure Visibility Wind Dir Wind Speed Gust Speed Precip Events Conditions
12:00 AM 45 °F - 40 °F 78% 30.00 in 19 mi SW 17.9 mph - - Rain Drizzle
12:25 AM 44.6 °F 37.2 °F 39.2 °F 81% 29.98 in 6.2 mi SW 17.3 mph - N/A   Unknown
12:55 AM 44.6 °F 37.4 °F 39.2 °F 81% 29.98 in 6.2 mi SW 16.1 mph - N/A   Unknown
1:00 AM 45 °F - 40 °F 77% 30.02 in 22 mi SW 17.9 mph - -   Partly Cloudy
1:25 AM 44.6 °F 37.8 °F 39.2 °F 81% 30.01 in 6.2 mi SW 15.0 mph - N/A   Unknown
1:55 AM 44.6 °F 37.8 °F 39.2 °F 81% 30.01 in 6.2 mi WSW 15.0 mph - N/A   Overcast
2:00 AM 44 °F - 40 °F 79% 30.04 in 22 mi WSW 13.4 mph - - Rain Rain
2:25 AM 44.6 °F 40.2 °F 39.2 °F 81% 30.01 in 6.2 mi WSW 8.1 mph - N/A Rain Light Rain
2:55 AM 42.8 °F 36.6 °F 39.2 °F 87% 30.04 in 6.2 mi SW 11.5 mph - N/A   Scattered Clouds
3:00 AM 44 °F - 39 °F 78% 30.05 in 25 mi SW 15.7 mph - - Rain Rain
3:25 AM 44.6 °F 37.2 °F 39.2 °F 81% 30.04 in 6.2 mi SW 17.3 mph - N/A   Mostly Cloudy
3:55 AM 42.8 °F 35.4 °F 39.2 °F 87% 30.04 in 6.2 mi SW 15.0 mph - N/A   Unknown
4:00 AM 43 °F - 39 °F 81% 30.06 in 19 mi SW 17.9 mph - -   Partly Cloudy
4:25 AM 42.8 °F 35.1 °F 39.2 °F 87% 30.04 in 6.2 mi SW 16.1 mph - N/A   Scattered Clouds
4:55 AM 42.8 °F 34.8 °F 39.2 °F 87% 30.04 in 6.2 mi SW 17.3 mph - N/A   Partly Cloudy
5:00 AM 43 °F - 39 °F 79% 30.06 in 19 mi SW 17.9 mph - -   Partly Cloudy
5:25 AM 42.8 °F 35.4 °F 39.2 °F 87% 30.04 in 6.2 mi SW 15.0 mph - N/A   Unknown
5:55 AM 42.8 °F 35.8 °F 39.2 °F 87% 30.04 in 6.2 mi SSW 13.8 mph - N/A   Unknown
6:00 AM 43 °F - 38 °F 77% 30.05 in 17 mi SW 13.4 mph - -   Partly Cloudy
6:25 AM 42.8 °F 36.2 °F 39.2 °F 87% 30.01 in 6.2 mi SSW 12.7 mph - N/A   Unknown
6:55 AM 41.0 °F 34.3 °F 37.4 °F 87% 30.04 in 6.2 mi SSW 11.5 mph - N/A   Unknown
7:00 AM 41 °F - 38 °F 85% 30.05 in 14 mi SSW 11.2 mph - -   Partly Cloudy
7:25 AM 41.0 °F 34.3 °F 39.2 °F 93% 30.01 in 6.2 mi SSW 11.5 mph - N/A   Unknown
7:55 AM 41.0 °F 33.9 °F 39.2 °F 93% 30.01 in 6.2 mi SSW 12.7 mph - N/A   Unknown
8:00 AM 41 °F - 38 °F 87% 30.03 in 14 mi SSW 13.4 mph - -   Mostly Cloudy
8:25 AM 41.0 °F 33.9 °F 39.2 °F 93% 30.01 in 6.2 mi SSW 12.7 mph - N/A   Unknown
8:55 AM 41.0 °F 33.5 °F 39.2 °F 93% 30.01 in 6.2 mi South 13.8 mph - N/A   Unknown
9:00 AM 41 °F - 39 °F 88% 30.02 in 15 mi South 13.4 mph - -  
9:25 AM 41.0 °F 33.1 °F 39.2 °F 93% 29.98 in 6.2 mi South 15.0 mph - N/A   Unknown
9:55 AM 42.8 °F 34.8 °F 39.2 °F 87% 29.98 in 6.2 mi SSW 17.3 mph - N/A   Unknown
10:00 AM 43 °F - 39 °F 81% 30.02 in 15 mi SSW 17.9 mph - -   Scattered Clouds
10:25 AM 44.6 °F 36.9 °F 39.2 °F 81% 29.98 in 6.2 mi SSW 18.4 mph - N/A   Unknown
10:55 AM 44.6 °F 36.9 °F 39.2 °F 81% 29.98 in 6.2 mi SSW 18.4 mph - N/A   Unknown
11:00 AM 45 °F - 40 °F 75% 30.00 in 17 mi SSW 17.9 mph - -  
11:25 AM 46.4 °F 39.2 °F 41.0 °F 81% 29.98 in 6.2 mi SSW 18.4 mph - N/A   Partly Cloudy
11:55 AM 46.4 °F 39.2 °F 41.0 °F 81% 29.95 in 6.2 mi SSW 18.4 mph - N/A   Partly Cloudy
12:00 PM 47 °F - 41 °F 72% 29.96 in 17 mi SSW 20.1 mph - -   Scattered Clouds
12:25 PM 48.2 °F - 41.0 °F 76% 29.92 in 6.2 mi SSW 17.3 mph - N/A   Partly Cloudy
12:55 PM 48.2 °F - 41.0 °F 76% 29.92 in 6.2 mi SSW 18.4 mph - N/A   Overcast
1:00 PM 48 °F - 41 °F 70% 29.92 in 17 mi SSW 20.1 mph - -   Partly Cloudy
1:25 PM 48.2 °F - 41.0 °F 76% 29.89 in 6.2 mi SSW 19.6 mph - N/A   Overcast
1:55 PM 48.2 °F - 41.0 °F 76% 29.86 in 6.2 mi SSW 23.0 mph - N/A   Overcast
2:00 PM 49 °F - 42 °F 68% 29.87 in 15 mi SSW 22.4 mph - -   Partly Cloudy
2:25 PM 50.0 °F - 41.0 °F 71% 29.83 in 6.2 mi South 20.7 mph 32.2 mph N/A   Scattered Clouds
2:55 PM 50.0 °F - 42.8 °F 76% 29.80 in 6.2 mi SSW 20.7 mph - N/A   Overcast
3:00 PM 49 °F - 42 °F 70% 29.82 in 17 mi SSW 22.4 mph - -   Overcast
3:25 PM 50.0 °F - 42.8 °F 76% 29.80 in 6.2 mi SSW 24.2 mph 35.7 mph N/A   Overcast
3:55 PM 50.0 °F - 42.8 °F 76% 29.77 in 6.2 mi SSW 23.0 mph - N/A   Mostly Cloudy
4:00 PM 49 °F - 42 °F 71% 29.78 in 19 mi SSW 22.4 mph - -   Scattered Clouds
4:25 PM 48.2 °F - 42.8 °F 82% 29.77 in 6.2 mi SSW 24.2 mph - N/A   Scattered Clouds
4:55 PM 50.0 °F - 42.8 °F 76% 29.74 in 6.2 mi SSW 24.2 mph - N/A   Overcast
5:00 PM 49 °F - 43 °F 71% 29.76 in 19 mi SSW 24.6 mph - -   Overcast
5:25 PM 50.0 °F - 42.8 °F 76% 29.71 in 6.2 mi SSW 24.2 mph - N/A   Mostly Cloudy
5:55 PM 50.0 °F - 42.8 °F 76% 29.68 in 6.2 mi SSW 23.0 mph - N/A   Overcast
6:00 PM 50 °F - 42 °F 67% 29.71 in 19 mi SSW 22.4 mph - -   Overcast
6:25 PM 50.0 °F - 42.8 °F 76% 29.68 in 6.2 mi South 24.2 mph 35.7 mph N/A   Partly Cloudy
6:55 PM 50.0 °F - 42.8 °F 76% 29.65 in 6.2 mi South 24.2 mph 36.8 mph N/A   Unknown
7:00 PM 51 °F - 42 °F 63% 29.66 in 22 mi SSW 26.8 mph - -   Partly Cloudy
7:25 PM 50.0 °F - 42.8 °F 76% 29.62 in 6.2 mi SSW 25.3 mph - N/A   Partly Cloudy
7:55 PM 51.8 °F - 41.0 °F 67% 29.62 in 6.2 mi SSW 25.3 mph - N/A   Partly Cloudy
8:00 PM 51 °F - 42 °F 61% 29.63 in 28 mi South 24.6 mph - -   Scattered Clouds
8:25 PM 51.8 °F - 41.0 °F 67% 29.59 in 6.2 mi SSW 28.8 mph 40.3 mph N/A   Partly Cloudy
8:55 PM 51.8 °F - 41.0 °F 67% 29.59 in 6.2 mi SSW 29.9 mph 41.4 mph N/A   Unknown
9:00 PM 52 °F - 41 °F 55% 29.60 in 28 mi SSW 29.1 mph - -   Mostly Cloudy
9:25 PM 51.8 °F - 41.0 °F 67% 29.56 in 6.2 mi SSW 28.8 mph - N/A   Partly Cloudy
9:55 PM 51.8 °F - 41.0 °F 67% 29.56 in 6.2 mi SSW 26.5 mph 38.0 mph N/A   Unknown
10:00 PM 52 °F - 40 °F 54% 29.56 in 28 mi SSW 26.8 mph - -   Mostly Cloudy
10:25 PM 51.8 °F - 41.0 °F 67% 29.53 in 6.2 mi SSW 27.6 mph 40.3 mph N/A   Partly Cloudy
10:55 PM 51.8 °F - 39.2 °F 62% 29.53 in 6.2 mi SSW 27.6 mph - N/A   Partly Cloudy
11:00 PM 52 °F - 40 °F 53% 29.53 in 25 mi SSW 26.8 mph - -   Overcast
11:25 PM 51.8 °F - 39.2 °F 62% 29.50 in 6.2 mi SSW 27.6 mph 39.1 mph N/A   Unknown
11:55 PM 53.6 °F - 39.2 °F 58% 29.50 in 6.2 mi SSW 31.1 mph 44.9 mph N/A   Partly Cloudy